Zurück zum Katalog

STARLINK-37111

AktivKommunikationSSO
NORAD 68381·PAYLOAD·🇺🇸 United States

Gestartet Mar 26, 2026 von Vandenberg Space Force Base

Loading…

Nächste Überflüge (nächste 24 Stunden)

TLE

AktuellSource: CelesTrak SupGP

Epoche: Sep 14, 2026, 23:16 UTC

1 68381C 26063B   26257.96993056 -.00034489  00000+0 -10703-2 0  2571
2 68381  97.2860  38.8687 0001208 101.1464  68.0110 15.33467703    14

Verfolge STARLINK-37111 in Echtzeit mit AllMySat

Download on the App Store